Regional Weather Roundup
Issued by NWS

Home | Current Version | Previous Version | Text Only | Print | Product List | Glossary On
Versions: 1 2 3 4 5 6 7 8 9 10 11 12 13 14 15 16 17 18 19 20 21 22 23 24 25 26 27 28 29 30 31 32 33 34 35 36 37 38 39 40 41 42 43 44 45 46 47 48 49 50
000
ASUS43 KMKX 181600
RWRWI

WISCONSIN REGIONAL WEATHER ROUNDUP
NATIONAL WEATHER SERVICE MILWAUKEE/SULLIVAN WI
1100 AM CDT WED OCT 18 2017

NOTE: "FAIR" INDICATES FEW OR NO CLOUDS BELOW 12,000 FEET WITH NO
SIGNIFICANT WEATHER AND/OR OBSTRUCTIONS TO VISIBILITY.

WIZ001-002-006>008-014>016-023>028-181700-
NORTHWEST WISCONSIN

CITY           SKY/WX    TMP DP  RH WIND       PRES   REMARKS
SUPERIOR ARPT  PTSUNNY   60  45  56 SW9       29.73R
ASHLAND        SUNNY     66  46  48 S13G28    29.71F
HAYWARD        SUNNY     64  45  49 S17G30    29.76F
SIREN          MOSUNNY   62  46  54 S10       29.74F
CUMBERLAND     SUNNY     55  45  67 S14       29.80F
RICE LAKE      SUNNY     61  47  60 S14       29.83F
CHETEK         SUNNY     59  48  67 S8G16     29.84S
LADYSMITH      SUNNY     58  47  67 S10G16    29.86F
EAU CLAIRE     NOT AVBL
MENOMONIE      SUNNY     61  48  63 SE8       29.84F
NEW RICHMOND   CLOUDY    59  45  60 S14       29.79F
OSCEOLA        CLOUDY    60  48  64 S12       29.81S
$$

WIZ003>005-009-010-017-018-181700-
NORTH CENTRAL WISCONSIN

CITY           SKY/WX    TMP DP  RH WIND       PRES   REMARKS
MANITOWISH WTR SUNNY     58  47  66 S13       29.82F
ARBOR VITAE    SUNNY     59  49  67 S14       29.84F
WOODRUFF       SUNNY     59  49  67 S14       29.84F
RHINELANDER    SUNNY     61  47  59 S18G24    29.88F
EAGLE RIVER    SUNNY     61  44  53 SW8G21    29.86F
LAND O LAKES   SUNNY     61  45  54 SW9G18    29.86F
PHILLIPS       CLOUDY    59  47  64 S10G16    29.83F
TOMAHAWK       SUNNY     58  46  64 CALM      29.90S
MEDFORD        SUNNY     57  46  65 S13       29.89F
MERRILL        SUNNY     59  46  63 SW13      29.92S
$$

WIZ029-030-035-036-043>047-181700-
CENTRAL WISCONSIN

CITY           SKY/WX    TMP DP  RH WIND       PRES   REMARKS
WAUSAU         SUNNY     60  46  59 S12       29.90F
MOSINEE        MOSUNNY   57  48  72 S14       29.93F
MARSHFIELD     SUNNY     60  46  59 S10       29.91F
STEVENS POINT  SUNNY     57  45  63 S14G22    29.95S
WAUPACA        SUNNY     62  47  57 S9G18     29.96S
WAUTOMA        SUNNY     61  47  59 S10G20      N/A
WISC RAPIDS    SUNNY     61  47  59 S8G22     29.95F
CAMP DOUGLAS   NOT AVBL
$$

WIZ011>013-019>022-031-037>040-048>050-181700-
NORTHEAST WISCONSIN

CITY           SKY/WX    TMP DP  RH WIND       PRES   REMARKS
ANTIGO         SUNNY     59  47  64 SW14      29.92F
SHAWANO        SUNNY     62  47  58 SW8       29.94S
OCONTO         SUNNY     61  47  60 S9        29.94F
STURGEON BAY   SUNNY     63  48  58 S13G25    29.96F
GREEN BAY      SUNNY     61  49  64 S16G24    29.97S
MANITOWOC      SUNNY     62  48  60 S13       30.00F
APPLETON       SUNNY     61  43  51 SW17G23   29.97S
CLINTONVILLE   SUNNY     61  45  55 SW16      29.95S
OSHKOSH        SUNNY     62  47  57 SW15G25   29.97F
$$

WIZ032>034-041-042-053>061-181700-
SOUTHWEST WISCONSIN

CITY           SKY/WX    TMP DP  RH WIND       PRES   REMARKS
LA CROSSE      SUNNY     62  48  60 S14       29.92F
SPARTA         SUNNY     59  47  65 S12G20    29.94F
VIROQUA        SUNNY     59  48  66 S10G18    29.97S
BOSCOBEL       SUNNY     65  46  50 S8G21     29.99F
PRAIRIE DU CHI SUNNY     61  44  55 S8        29.99S
PLATTEVILLE    SUNNY     60  47  63 S15       30.03S
$$

WIZ056-057-062-063-064-067-068-181700-
SOUTH CENTRAL WISCONSIN

CITY           SKY/WX    TMP DP  RH WIND       PRES   REMARKS
REEDSBURG      SUNNY     59  46  63 S13       29.99S
BARABOO/DELLS  SUNNY     59  44  58 SW14G21   29.99S
LONE ROCK      SUNNY     63  48  58 S9        30.00F
MINERAL POINT  SUNNY     61  46  59 S15       30.02F
MADISON        SUNNY     60  45  57 S14       30.02F
MIDDLETON      SUNNY     61  46  56 SW10      30.03F
WATERTOWN      SUNNY     60  45  57 S14G20    30.04F
MONROE         SUNNY     59  43  55 S16G23    30.05F
JANESVILLE     SUNNY     64  45  48 S12       30.06F
$$

WIZ051-052-058>065-066-070>072-181700-
SOUTHEAST WISCONSIN

CITY           SKY/WX    TMP DP  RH WIND       PRES   REMARKS
MILWAUKEE      SUNNY     64  43  46 S15       30.07F
WAUKESHA       SUNNY     61  43  51 S13G18    30.07F
MILWAUKEE/TIMM SUNNY     63  39  42 SW14G20   30.04F
RACINE         SUNNY     65  45  48 SW16      30.10F
BURLINGTON     SUNNY     62  46  55 S12       30.08F
KENOSHA        SUNNY     64  43  46 S12       30.10F
FOND DU LAC    SUNNY     64  43  46 S16G24    29.99F
SHEBOYGAN      SUNNY     65  48  54 S23G29    30.00F
WEST BEND      SUNNY     63  43  48 S13G20    30.03F
JUNEAU         SUNNY     59  44  57 S15G22    30.03F
$$

LSZ147-162-181700-
LAKE SUPERIOR

STATION/POSITION TIME  TEMP    WIND        PRES    WAVE
                       AIR SEA DIR/SP/G            HT/PER
                 (UTC) (F)     (DEG/KT/KT) (MB)    (FT/S)
W MID LAKE BUOY  1450   55 53              1005.7F   3/ 5
DEVILS ISLAND    1500   58     180/ 10/ 14 1005.8F
PORT WING        1440          210/ 10/ 21 1006.4
SAXON HARBOR     1530   65     200/ 16/ 24 1006.1F
$$

LMZ867-665-643>646-181700-
LAKE MICHIGAN

STATION/POSITION TIME  TEMP    WIND        PRES    WAVE
                       AIR SEA DIR/SP/G            HT/PER
                 (UTC) (F)     (DEG/KT/KT) (MB)    (FT/S)
S GREEN BAY BUOY 1530   59 58  190/ 16/ 21 1014.0F
N MID LAKE BUOY  1450   60 59  190/ 23/ 27 1014.7F   6/ 6
NORTHPORT PIER   1540   61     160/  7/ 15 1014.2S
KEWAUNEE LAKESHO 1530   56     180/ 15/ 18 1014.6F
SHEBOYGAN LAKESH 1500   56     180/ 15/ 16 1017.0F
PORT WASHINGTON  1530   60     180/ 10/ 12 1017.9F
ATWATER BUOY     1409   56 53  190/ 12/ 16 1018.7F
MILWAUKEE LAKESH 1530   60     200/ 11/ 13   N/A
S MID LAKE BUOY  1450   59 61  220/ 17/ 21 1020.4F   4/ 6
KENOSHA   LAKESH 1500   60     210/  8/ 16 1019.3
$$

TC  - TEMPERATURE IN CELSIUS
VSB - VISIBILITY IN STATUTE MILES
WCI - WIND CHILL INDEX
HX  - HEAT INDEX




USA.gov is the U.S. government's official web portal to all federal, state and local government web resources and services.